Hourly Data Report for September 04, 2018

SHEARWATER RCS
NOVA SCOTIA
Current Station Operator: ECCC - MSC

44°37'47.000" N
63°30'48.000" W
24.00 m
8205092
71264
AAW

Download Data

Hourly Data (September 2018)
Hourly Data Report for September 4, 2018
TIME
LST
Temp Definition
°C
Dew Point Definition
°C
Rel Hum Definition
%
Precip. Amount Definition
mm

Wind Dir Definition
10's deg

Wind Spd Definition
km/h
Visibility Definition
km
Stn Press Definition
kPa
Hmdx Definition


Wind Chill Definition


Weather Definition


00:00 20.7 17.8 83 0.0 21 16   101.78 27   LegendNANA
01:00 20.5 17.7 84 0.0 21 14   101.71 26   LegendNANA
02:00 20.1 18.4 90 0.0 21 15   101.63 26   LegendNANA
03:00 20.0 18.6 92 0.0 22 13   101.59 26   LegendNANA
04:00 19.8 18.6 93 0.0 23 10   101.55     LegendNANA
05:00 19.7 18.6 94 1.5 22 10   101.55     LegendNANA
06:00 19.7 18.7 94 1.2 23 10   101.51     LegendNANA
07:00 19.7 18.8 94 0.0 28 7   101.57     LegendNANA
08:00 20.2 19.1 93 0.0 28 6   101.56 27   LegendNANA
09:00 21.3 19.8 91 0.0 31 7   101.58 29   LegendNANA
10:00 22.1 19.8 87 0.0 32 10   101.62 30   LegendNANA
11:00 24.1 19.9 78 0.0 35 16   101.59 32   LegendNANA
12:00 24.4 19.0 72 0.0 34 14   101.58 31   LegendNANA
13:00 24.4 19.1 73 0.0 35 15   101.58 31   LegendNANA
14:00 23.2 18.3 74 0.0 34 16   101.56 29   LegendNANA
15:00 23.2 17.0 68 0.0 33 18   101.59 28   LegendNANA
16:00 24.5 16.1 60 0.0 34 16   101.61 29   LegendNANA
17:00 23.4 15.5 61 0.0 33 14   101.65 28   LegendNANA
18:00 22.3 14.6 62 0.0 33 13   101.68 26   LegendNANA
19:00 20.5 13.2 63 0.0 33 11   101.73     LegendNANA
20:00 18.7 12.2 66 0.0 32 7   101.84     LegendNANA
21:00 17.1 11.5 70 0.0 33 7   101.85     LegendNANA
22:00 15.9 10.8 71 0.0 32 4   101.87     LegendNANA
23:00 14.6 11.4 81 0.0 0 1   101.88     LegendNANA

Notes on Data Quality.

Legend

  • E = Estimated
  • M = Missing
  • NA = Not Available*
  • [empty] = Indicates an unobserved value
Date modified: